Weather in Vegarus

Russia / Republic of Karelia     62°17′42″N   32°05′56″E
temp.,
°C
wind,
m/s
gust,
m/s
humid.,
%
clouds,
%
prec.,
mm/h
press.,
hPa
HPBL,
m
18 september, sat
sat1800:00+5ne2796100 0.3 1027304
03:00+5ne269699 0.4 1028205
06:00+4ne269398 0.0 1029221
09:00+5ene378494 0.0 1029451
12:00+7ene346594 0.0 1030823
15:00+8ene3358100 0.0 10301272
18:00+6ene3561100 0.0 1030361
21:00+5e2565100 0.0 1030250
19 september, sun
sun1900:00+5e2465100 0.0 1031114
03:00+5e2467100 0.0 1031119
06:00+4ene2573100 0.0 1031171
09:00+6ene3561100 0.0 1032778
12:00+6ene3558100 0.0 10321386
15:00+7ene4553100 0.0 10311532
18:00+6ene3664100 0.0 1031691
21:00+5ene3970100 0.0 1032555
20 september, mon
mon2000:00+4ene297278 0.0 1033448
03:00+1ene3108585 0.0 1033248
06:00+4ene3869100 0.0 1033457
09:00+5ene397175 0.0 1033910
12:00+8e575471 0.0 10331440
15:00+7ene465798 0.0 10321424
18:00+6e4764100 0.0 10311252
21:00+4e3869100 0.0 1031728
21 september, tue
tue2100:00+4ene3767100 0.0 1031624
03:00+3ene3773100 0.0 1030389
06:00+3ene3775100 0.0 1029383
09:00+4ene3768100 0.0 1028573
12:00+6e3456100 0.0 10271117
15:00+6ene3457100 0.0 10261000
18:00+5ne247072 0.0 1025102
21:00+2ne25869 0.0 102594
22 september, wed
wed2200:000nne24915 0.0 102571
03:000ne23955 0.0 102457
06:00−1ne24975 0.0 102374
09:00+3ene24835 0.0 1023230
12:00+8e22615 0.0 1022764
15:00+10e125478 0.0 1020930
18:00+7e117194 0.0 102010
21:00+4ese238773 0.0 101964